QPF
0.01 0.02 0.02 0.02 0.01 0.01 0.01 0.01 0.02 0.02 0.02 0.01 0.01 0.01 0.00 0.00 0.00 0.00 0.00 0.01 0.01 0.02 0.04 0.05 0.05 0.05 0.06 0.07 0.08 0.09 0.09 0.10 0.10 0.07 0.04 0.04 0.03 0.02 0.02 0.02 0.01 0.01 0.01
0.00 0.01 0.02 0.02 0.02 0.01 0.01 0.01 0.01 0.02 0.02 0.02 0.01 0.01 0.00 0.00 0.00 0.00 0.00 0.00 0.01 0.01 0.03 0.06 0.06 0.06 0.06 0.06 0.08 0.10 0.12 0.11 0.14 0.13 0.06 0.04 0.04 0.03 0.03 0.02 0.02 0.01 0.01
0.00 0.00 0.01 0.01 0.02 0.02 0.02 0.01 0.01 0.02 0.02 0.02 0.02 0.01 0.00 0.00 0.00 0.00 0.01 0.01 0.01 0.01 0.02 0.04 0.06 0.07 0.07 0.06 0.07 0.09 0.09 0.10 0.10 0.10 0.08 0.06 0.05 0.04 0.04 0.03 0.03 0.02 0.02
0.00 0.00 0.00 0.01 0.01 0.02 0.02 0.02 0.02 0.03 0.04 0.03 0.02 0.02 0.01 0.00 0.00 0.00 0.01 0.01 0.01 0.01 0.02 0.05 0.09 0.10 0.10 0.08 0.09 0.11 0.08 0.08 0.09 0.09 0.08 0.07 0.07 0.06 0.05 0.05 0.04 0.04 0.03
0.00 0.00 0.00 0.01 0.01 0.02 0.03 0.03 0.02 0.02 0.04 0.07 0.07 0.04 0.02 0.01 0.00 0.01 0.01 0.01 0.01 0.01 0.01 0.04 0.11 0.13 0.13 0.14 0.14 0.14 0.11 0.08 0.07 0.08 0.08 0.07 0.07 0.08 0.08 0.06 0.05 0.04 0.03
0.00 0.00 0.00 0.01 0.01 0.01 0.02 0.02 0.03 0.02 0.02 0.04 0.07 0.08 0.07 0.05 0.02 0.01 0.01 0.01 0.01 0.01 0.01 0.03 0.06 0.07 0.07 0.08 0.10 0.11 0.12 0.11 0.09 0.08 0.07 0.08 0.08 0.08 0.08 0.07 0.06 0.04 0.03
0.00 0.00 0.00 0.00 0.00 0.01 0.01 0.02 0.03 0.03 0.02 0.03 0.04 0.06 0.06 0.06 0.04 0.03 0.02 0.02 0.02 0.02 0.02 0.02 0.03 0.05 0.05 0.05 0.06 0.06 0.07 0.10 0.12 0.13 0.10 0.09 0.10 0.09 0.07 0.08 0.06 0.05 0.04
0.00 0.00 0.00 0.00 0.00 0.00 0.00 0.01 0.02 0.04 0.04 0.03 0.03 0.04 0.06 0.05 0.04 0.03 0.02 0.02 0.02 0.02 0.02 0.02 0.03 0.03 0.04 0.04 0.06 0.06 0.05 0.05 0.09 0.15 0.18 0.18 0.17 0.12 0.08 0.09 0.10 0.07 0.04
0.00 0.00 0.00 0.00 0.00 0.00 0.00 0.00 0.01 0.02 0.04 0.04 0.04 0.04 0.04 0.04 0.03 0.03 0.02 0.02 0.01 0.01 0.02 0.04 0.03 0.03 0.03 0.03 0.03 0.05 0.06 0.05 0.05 0.09 0.13 0.16 0.16 0.14 0.11 0.10 0.11 0.11 0.08
0.00 0.00 0.00 0.00 0.00 0.00 0.00 0.00 0.00 0.01 0.02 0.03 0.03 0.04 0.04 0.04 0.04 0.03 0.02 0.02 0.01 0.01 0.01 0.03 0.04 0.04 0.04 0.04 0.03 0.03 0.04 0.04 0.05 0.07 0.10 0.13 0.14 0.12 0.10 0.09 0.10 0.11 0.11
0.00 0.00 0.00 0.00 0.00 0.00 0.00 0.00 0.00 0.01 0.01 0.03 0.04 0.04 0.04 0.03 0.03 0.03 0.02 0.02 0.02 0.01 0.00 0.01 0.02 0.03 0.04 0.04 0.04 0.04 0.04 0.03 0.04 0.05 0.08 0.12 0.13 0.12 0.11 0.10 0.10 0.08 0.09
0.00 0.00 0.00 0.00 0.00 0.00 0.00 0.00 0.00 0.00 0.00 0.01 0.03 0.04 0.04 0.03 0.03 0.03 0.03 0.02 0.01 0.01 0.00 0.00 0.00 0.01 0.01 0.02 0.02 0.03 0.04 0.04 0.04 0.05 0.06 0.10 0.12 0.12 0.13 0.13 0.11 0.09 0.07
0.01 0.00 0.00 0.00 0.00 0.00 0.00 0.00 0.00 0.00 0.00 0.01 0.01 0.03 0.03 0.03 0.03 0.02 0.02 0.02 0.02 0.01 0.01 0.01 0.00 0.00 0.00 0.01 0.01 0.02 0.02 0.03 0.03 0.03 0.04 0.07 0.11 0.11 0.11 0.11 0.10 0.08 0.08
0.01 0.01 0.01 0.01 0.01 0.01 0.01 0.01 0.00 0.00 0.00 0.00 0.01 0.01 0.02 0.03 0.03 0.03 0.03 0.03 0.03 0.02 0.01 0.01 0.01 0.00 0.00 0.00 0.01 0.01 0.01 0.02 0.02 0.03 0.03 0.04 0.06 0.10 0.11 0.10 0.09 0.06 0.06
0.01 0.01 0.01 0.01 0.01 0.01 0.01 0.01 0.01 0.01 0.00 0.01 0.01 0.01 0.01 0.02 0.03 0.02 0.02 0.02 0.03 0.03 0.02 0.02 0.01 0.01 0.01 0.00 0.00 0.01 0.01 0.01 0.02 0.02 0.02 0.03 0.04 0.06 0.09 0.09 0.08 0.06 0.05
0.00 0.01 0.01 0.02 0.01 0.01 0.01 0.01 0.01 0.01 0.01 0.01 0.01 0.01 0.01 0.01 0.02 0.02 0.02 0.01 0.02 0.02 0.03 0.02 0.02 0.01 0.01 0.01 0.00 0.00 0.00 0.01 0.01 0.02 0.02 0.03 0.03 0.03 0.06 0.08 0.08 0.07 0.05
0.00 0.00 0.01 0.01 0.01 0.01 0.01 0.01 0.02 0.01 0.01 0.01 0.01 0.01 0.01 0.01 0.01 0.01 0.01 0.01 0.02 0.02 0.02 0.02 0.02 0.01 0.01 0.02 0.01 0.01 0.01 0.01 0.01 0.01 0.02 0.03 0.03 0.03 0.03 0.06 0.08 0.08 0.07
0.01 0.01 0.01 0.01 0.01 0.01 0.01 0.01 0.02 0.02 0.02 0.01 0.01 0.01 0.01 0.01 0.01 0.01 0.01 0.01 0.01 0.01 0.01 0.02 0.02 0.02 0.01 0.01 0.02 0.02 0.02 0.01 0.01 0.01 0.01 0.02 0.02 0.03 0.03 0.03 0.06 0.08 0.08
0.00 0.00 0.01 0.01 0.01 0.01 0.01 0.01 0.01 0.02 0.02 0.02 0.02 0.02 0.01 0.01 0.02 0.01 0.01 0.01 0.01 0.01 0.01 0.01 0.01 0.01 0.01 0.02 0.01 0.01 0.01 0.02 0.01 0.01 0.02 0.02 0.03 0.03 0.03 0.03 0.04 0.06 0.08
0.00 0.00 0.00 0.01 0.01 0.01 0.01 0.01 0.01 0.01 0.01 0.02 0.02 0.02 0.02 0.02 0.01 0.01 0.01 0.01 0.01 0.01 0.01 0.01 0.01 0.01 0.01 0.01 0.01 0.01 0.01 0.01 0.02 0.02 0.02 0.03 0.03 0.03 0.03 0.03 0.03 0.04 0.06
0.00 0.00 0.00 0.00 0.01 0.01 0.01 0.01 0.01 0.01 0.01 0.01 0.02 0.02 0.02 0.02 0.01 0.01 0.02 0.02 0.02 0.02 0.02 0.02 0.01 0.01 0.01 0.01 0.01 0.01 0.02 0.02 0.02 0.02 0.02 0.02 0.03 0.04 0.04 0.03 0.04 0.04 0.04
0.00 0.00 0.00 0.00 0.00 0.01 0.01 0.00 0.01 0.01 0.01 0.02 0.02 0.02 0.02 0.01 0.01 0.01 0.01 0.02 0.02 0.02 0.03 0.02 0.02 0.02 0.01 0.01 0.01 0.02 0.02 0.02 0.03 0.02 0.02 0.01 0.02 0.03 0.04 0.04 0.04 0.03 0.03
0.00 0.00 0.00 0.00 0.00 0.00 0.01 0.00 0.01 0.01 0.01 0.01 0.02 0.01 0.01 0.01 0.01 0.01 0.01 0.01 0.01 0.01 0.02 0.02 0.02 0.02 0.01 0.01 0.01 0.02 0.02 0.03 0.03 0.02 0.02 0.02 0.02 0.03 0.03 0.04 0.05 0.04 0.03
0.00 0.00 0.00 0.00 0.00 0.00 0.01 0.01 0.01 0.01 0.01 0.01 0.01 0.01 0.01 0.01 0.01 0.01 0.01 0.01 0.01 0.01 0.01 0.01 0.01 0.01 0.01 0.01 0.01 0.02 0.02 0.03 0.03 0.02 0.02 0.03 0.02 0.02 0.03 0.03 0.04 0.04 0.04
0.01 0.00 0.00 0.00 0.00 0.00 0.00 0.01 0.01 0.01 0.01 0.01 0.01 0.01 0.01 0.01 0.01 0.02 0.02 0.02 0.01 0.01 0.01 0.01 0.01 0.01 0.01 0.01 0.02 0.02 0.03 0.03 0.03 0.03 0.02 0.03 0.03 0.02 0.03 0.04 0.04 0.04 0.04
0.01 0.01 0.01 0.01 0.01 0.01 0.01 0.01 0.01 0.01 0.01 0.02 0.02 0.02 0.02 0.02 0.02 0.02 0.02 0.02 0.02 0.01 0.01 0.01 0.01 0.01 0.01 0.01 0.01 0.01 0.02 0.04 0.04 0.03 0.02 0.02 0.03 0.04 0.05 0.04 0.04 0.04 0.05
MSLP
1024.41 1024.54 1024.67 1024.79 1024.89 1024.97 1025.04 1025.11 1025.20 1025.30 1025.42 1025.57 1025.74 1025.93 1026.10 1026.25 1026.36 1026.40 1026.36 1026.25 1026.06 1025.82 1025.53 1025.24 1024.96 1024.73 1024.54 1024.42 1024.34 1024.29 1024.23 1024.14 1023.98 1023.75 1023.44 1023.05 1022.60 1022.12 1021.63 1021.14 1020.69 1020.26 1019.85
1024.58 1024.72 1024.86 1025.01 1025.15 1025.29 1025.42 1025.55 1025.69 1025.84 1026.02 1026.22 1026.44 1026.66 1026.88 1027.08 1027.22 1027.30 1027.30 1027.21 1027.03 1026.78 1026.47 1026.13 1025.81 1025.51 1025.28 1025.10 1024.99 1024.91 1024.85 1024.77 1024.64 1024.44 1024.16 1023.80 1023.36 1022.88 1022.38 1021.86 1021.37 1020.90 1020.46
1024.74 1024.88 1025.03 1025.20 1025.39 1025.58 1025.77 1025.97 1026.17 1026.39 1026.62 1026.86 1027.11 1027.37 1027.62 1027.85 1028.02 1028.14 1028.17 1028.11 1027.96 1027.72 1027.41 1027.07 1026.71 1026.38 1026.09 1025.86 1025.69 1025.58 1025.49 1025.40 1025.28 1025.10 1024.85 1024.51 1024.10 1023.62 1023.12 1022.59 1022.08 1021.59 1021.11
1024.94 1025.06 1025.22 1025.41 1025.62 1025.86 1026.10 1026.36 1026.62 1026.89 1027.16 1027.44 1027.72 1028.00 1028.26 1028.50 1028.70 1028.85 1028.92 1028.91 1028.81 1028.62 1028.35 1028.03 1027.68 1027.32 1026.99 1026.71 1026.49 1026.31 1026.18 1026.05 1025.91 1025.73 1025.48 1025.16 1024.77 1024.31 1023.81 1023.29 1022.77 1022.26 1021.78
1025.18 1025.30 1025.46 1025.65 1025.88 1026.14 1026.42 1026.71 1027.02 1027.32 1027.62 1027.91 1028.20 1028.48 1028.75 1028.99 1029.21 1029.38 1029.50 1029.56 1029.53 1029.43 1029.24 1028.98 1028.66 1028.32 1027.98 1027.65 1027.36 1027.12 1026.91 1026.72 1026.53 1026.32 1026.06 1025.74 1025.36 1024.91 1024.43 1023.92 1023.41 1022.92 1022.44
1025.47 1025.60 1025.75 1025.94 1026.16 1026.42 1026.71 1027.01 1027.32 1027.64 1027.94 1028.23 1028.51 1028.78 1029.03 1029.27 1029.49 1029.70 1029.87 1030.00 1030.08 1030.08 1030.00 1029.84 1029.61 1029.31 1028.98 1028.63 1028.28 1027.96 1027.67 1027.40 1027.14 1026.88 1026.58 1026.25 1025.87 1025.44 1024.98 1024.50 1024.01 1023.54 1023.08
1025.79 1025.93 1026.08 1026.25 1026.46 1026.70 1026.96 1027.24 1027.54 1027.84 1028.12 1028.39 1028.65 1028.89 1029.12 1029.34 1029.57 1029.80 1030.02 1030.23 1030.42 1030.54 1030.59 1030.56 1030.43 1030.21 1029.91 1029.57 1029.19 1028.80 1028.43 1028.08 1027.74 1027.41 1027.07 1026.71 1026.33 1025.91 1025.48 1025.03 1024.58 1024.14 1023.71
1026.10 1026.25 1026.41 1026.57 1026.74 1026.94 1027.17 1027.42 1027.67 1027.94 1028.19 1028.43 1028.66 1028.87 1029.07 1029.27 1029.49 1029.74 1030.00 1030.28 1030.55 1030.80 1030.98 1031.08 1031.07 1030.94 1030.71 1030.39 1030.00 1029.58 1029.14 1028.71 1028.30 1027.91 1027.53 1027.15 1026.76 1026.37 1025.96 1025.54 1025.13 1024.73 1024.35
1026.34 1026.54 1026.70 1026.86 1027.01 1027.17 1027.35 1027.55 1027.77 1027.99 1028.22 1028.43 1028.63 1028.81 1028.99 1029.17 1029.38 1029.62 1029.90 1030.21 1030.55 1030.88 1031.17 1031.38 1031.49 1031.47 1031.31 1031.04 1030.67 1030.24 1029.77 1029.29 1028.83 1028.40 1027.98 1027.59 1027.21 1026.83 1026.45 1026.07 1025.70 1025.34 1024.99
1026.49 1026.74 1026.94 1027.10 1027.25 1027.38 1027.53 1027.69 1027.87 1028.07 1028.28 1028.48 1028.67 1028.84 1029.00 1029.16 1029.34 1029.56 1029.83 1030.14 1030.50 1030.87 1031.22 1031.51 1031.70 1031.77 1031.70 1031.50 1031.17 1030.76 1030.29 1029.80 1029.32 1028.86 1028.44 1028.04 1027.67 1027.31 1026.96 1026.62 1026.27 1025.94 1025.61
1026.53 1026.86 1027.12 1027.31 1027.46 1027.60 1027.73 1027.87 1028.04 1028.24 1028.45 1028.66 1028.86 1029.04 1029.20 1029.35 1029.50 1029.67 1029.89 1030.16 1030.49 1030.84 1031.20 1031.52 1031.77 1031.90 1031.90 1031.76 1031.50 1031.13 1030.70 1030.23 1029.76 1029.31 1028.89 1028.50 1028.15 1027.81 1027.48 1027.16 1026.83 1026.51 1026.19
1026.48 1026.90 1027.23 1027.49 1027.68 1027.83 1027.97 1028.13 1028.31 1028.52 1028.76 1029.01 1029.24 1029.45 1029.62 1029.76 1029.88 1030.00 1030.15 1030.34 1030.59 1030.88 1031.19 1031.49 1031.74 1031.90 1031.95 1031.88 1031.68 1031.38 1031.00 1030.57 1030.14 1029.71 1029.31 1028.95 1028.61 1028.29 1027.98 1027.66 1027.35 1027.02 1026.69
1026.37 1026.89 1027.31 1027.64 1027.89 1028.09 1028.27 1028.45 1028.66 1028.92 1029.20 1029.50 1029.78 1030.03 1030.23 1030.37 1030.47 1030.53 1030.60 1030.69 1030.83 1031.02 1031.24 1031.47 1031.69 1031.85 1031.93 1031.90 1031.75 1031.52 1031.20 1030.83 1030.44 1030.05 1029.68 1029.34 1029.01 1028.71 1028.40 1028.10 1027.77 1027.44 1027.09
1026.22 1026.85 1027.37 1027.78 1028.11 1028.37 1028.59 1028.82 1029.08 1029.37 1029.71 1030.06 1030.40 1030.70 1030.93 1031.09 1031.17 1031.19 1031.18 1031.17 1031.19 1031.26 1031.37 1031.51 1031.66 1031.79 1031.86 1031.85 1031.76 1031.57 1031.31 1030.99 1030.65 1030.29 1029.95 1029.63 1029.32 1029.02 1028.72 1028.42 1028.09 1027.75 1027.39
1026.07 1026.79 1027.40 1027.91 1028.31 1028.63 1028.91 1029.18 1029.48 1029.82 1030.20 1030.60 1030.99 1031.33 1031.61 1031.78 1031.86 1031.85 1031.78 1031.69 1031.61 1031.56 1031.55 1031.60 1031.67 1031.74 1031.79 1031.78 1031.71 1031.56 1031.33 1031.06 1030.74 1030.42 1030.10 1029.78 1029.49 1029.20 1028.91 1028.61 1028.29 1027.95 1027.59
1025.91 1026.71 1027.40 1027.99 1028.46 1028.85 1029.17 1029.48 1029.81 1030.17 1030.57 1031.00 1031.43 1031.81 1032.12 1032.32 1032.42 1032.40 1032.30 1032.15 1031.99 1031.85 1031.76 1031.71 1031.70 1031.71 1031.72 1031.70 1031.62 1031.48 1031.28 1031.02 1030.72 1030.41 1030.10 1029.80 1029.51 1029.23 1028.96 1028.68 1028.38 1028.06 1027.72
1025.74 1026.58 1027.34 1027.99 1028.52 1028.96 1029.33 1029.66 1030.00 1030.37 1030.78 1031.21 1031.65 1032.05 1032.38 1032.62 1032.73 1032.73 1032.64 1032.47 1032.28 1032.09 1031.93 1031.81 1031.74 1031.70 1031.66 1031.60 1031.50 1031.35 1031.14 1030.88 1030.59 1030.27 1029.96 1029.66 1029.38 1029.12 1028.87 1028.62 1028.36 1028.09 1027.78
1025.50 1026.39 1027.19 1027.89 1028.47 1028.95 1029.34 1029.70 1030.04 1030.40 1030.79 1031.21 1031.64 1032.04 1032.39 1032.65 1032.80 1032.83 1032.76 1032.62 1032.43 1032.23 1032.04 1031.88 1031.76 1031.66 1031.58 1031.48 1031.34 1031.16 1030.94 1030.66 1030.35 1030.03 1029.71 1029.41 1029.14 1028.90 1028.68 1028.47 1028.26 1028.04 1027.79
1025.20 1026.09 1026.92 1027.66 1028.28 1028.80 1029.23 1029.60 1029.94 1030.29 1030.66 1031.05 1031.45 1031.84 1032.19 1032.47 1032.65 1032.73 1032.71 1032.60 1032.45 1032.26 1032.07 1031.90 1031.75 1031.61 1031.48 1031.33 1031.16 1030.94 1030.68 1030.38 1030.05 1029.72 1029.39 1029.09 1028.83 1028.60 1028.42 1028.25 1028.09 1027.92 1027.73
1024.81 1025.70 1026.55 1027.32 1027.98 1028.54 1029.01 1029.40 1029.75 1030.09 1030.44 1030.80 1031.17 1031.54 1031.88 1032.17 1032.38 1032.50 1032.53 1032.47 1032.36 1032.21 1032.04 1031.86 1031.69 1031.53 1031.36 1031.17 1030.95 1030.69 1030.40 1030.07 1029.73 1029.38 1029.05 1028.75 1028.49 1028.28 1028.11 1027.97 1027.85 1027.72 1027.57
1024.37 1025.25 1026.10 1026.90 1027.60 1028.21 1028.72 1029.16 1029.53 1029.88 1030.22 1030.55 1030.90 1031.24 1031.56 1031.85 1032.07 1032.22 1032.29 1032.29 1032.22 1032.10 1031.96 1031.79 1031.61 1031.42 1031.21 1030.98 1030.73 1030.44 1030.12 1029.78 1029.42 1029.06 1028.72 1028.42 1028.17 1027.96 1027.79 1027.66 1027.55 1027.45 1027.32
1023.92 1024.79 1025.65 1026.46 1027.21 1027.87 1028.44 1028.93 1029.34 1029.71 1030.05 1030.38 1030.70 1031.01 1031.31 1031.58 1031.80 1031.96 1032.06 1032.09 1032.06 1031.97 1031.84 1031.68 1031.49 1031.28 1031.05 1030.80 1030.51 1030.21 1029.87 1029.52 1029.16 1028.80 1028.46 1028.16 1027.90 1027.68 1027.50 1027.36 1027.23 1027.11 1026.97
1023.55 1024.40 1025.25 1026.08 1026.86 1027.57 1028.20 1028.75 1029.22 1029.62 1029.97 1030.29 1030.60 1030.88 1031.15 1031.39 1031.60 1031.76 1031.86 1031.90 1031.88 1031.81 1031.69 1031.53 1031.34 1031.12 1030.87 1030.60 1030.31 1029.99 1029.66 1029.31 1028.96 1028.61 1028.28 1027.98 1027.71 1027.47 1027.26 1027.08 1026.91 1026.74 1026.56
1023.33 1024.15 1024.98 1025.82 1026.62 1027.37 1028.05 1028.64 1029.16 1029.59 1029.97 1030.29 1030.58 1030.83 1031.07 1031.27 1031.45 1031.58 1031.67 1031.71 1031.69 1031.62 1031.51 1031.35 1031.15 1030.93 1030.67 1030.40 1030.11 1029.80 1029.49 1029.16 1028.83 1028.50 1028.19 1027.89 1027.60 1027.34 1027.09 1026.86 1026.63 1026.40 1026.16
1023.32 1024.10 1024.90 1025.71 1026.51 1027.27 1027.98 1028.60 1029.15 1029.61 1029.99 1030.31 1030.58 1030.81 1031.00 1031.16 1031.30 1031.40 1031.46 1031.48 1031.46 1031.39 1031.27 1031.11 1030.92 1030.70 1030.46 1030.19 1029.92 1029.64 1029.35 1029.05 1028.76 1028.46 1028.16 1027.87 1027.58 1027.29 1027.00 1026.72 1026.43 1026.13 1025.83
1023.52 1024.24 1025.00 1025.77 1026.54 1027.28 1027.98 1028.60 1029.15 1029.62 1030.00 1030.30 1030.54 1030.73 1030.88 1031.00 1031.10 1031.16 1031.19 1031.19 1031.16 1031.09 1030.98 1030.83 1030.65 1030.44 1030.22 1029.98 1029.73 1029.48 1029.23 1028.97 1028.71 1028.45 1028.18 1027.89 1027.60 1027.30 1026.98 1026.65 1026.30 1025.95 1025.59
Thickness
5581 5582 5583 5584 5586 5588 5590 5592 5595 5598 5600 5601 5602 5604 5605 5606 5607 5607 5608 5608 5610 5613 5615 5617 5618 5619 5621 5623 5624 5625 5625 5626 5626 5627 5628 5628 5629 5630 5631 5631 5632 5633 5633
5571 5572 5574 5575 5576 5578 5580 5583 5586 5588 5590 5592 5594 5594 5595 5596 5597 5598 5599 5600 5601 5603 5605 5607 5609 5610 5612 5614 5615 5616 5617 5618 5619 5619 5620 5621 5622 5622 5623 5624 5625 5626 5626
5561 5562 5564 5565 5566 5568 5570 5573 5576 5579 5581 5583 5584 5585 5586 5587 5588 5588 5590 5591 5592 5593 5594 5596 5598 5600 5602 5604 5606 5607 5608 5610 5611 5611 5612 5613 5614 5615 5616 5616 5617 5618 5619
5550 5551 5553 5554 5555 5557 5560 5563 5565 5569 5571 5573 5575 5576 5576 5577 5578 5579 5580 5581 5582 5583 5584 5585 5587 5589 5591 5593 5595 5597 5598 5600 5601 5602 5603 5604 5605 5606 5607 5608 5609 5610 5611
5539 5541 5542 5543 5544 5547 5550 5551 5554 5557 5559 5561 5563 5565 5566 5567 5567 5568 5569 5570 5570 5571 5573 5574 5576 5577 5580 5582 5584 5586 5588 5590 5591 5593 5594 5595 5596 5597 5599 5600 5601 5602 5603
5528 5530 5531 5532 5534 5536 5538 5540 5542 5544 5547 5549 5552 5554 5555 5556 5557 5558 5558 5559 5559 5560 5562 5563 5565 5567 5568 5570 5572 5574 5577 5579 5581 5582 5584 5585 5586 5587 5589 5590 5592 5593 5594
5518 5518 5519 5520 5522 5524 5526 5528 5530 5532 5534 5537 5541 5544 5545 5545 5546 5546 5547 5548 5548 5549 5550 5551 5553 5555 5557 5558 5560 5562 5565 5568 5570 5571 5573 5575 5576 5577 5578 5580 5581 5583 5584
5506 5507 5508 5509 5511 5513 5514 5516 5518 5520 5522 5523 5528 5534 5538 5538 5536 5535 5535 5536 5536 5537 5538 5539 5541 5543 5544 5546 5547 5549 5551 5554 5557 5559 5561 5563 5564 5566 5567 5569 5570 5573 5574
5494 5495 5497 5498 5499 5501 5502 5504 5506 5508 5510 5511 5513 5518 5526 5531 5526 5525 5523 5524 5524 5524 5526 5527 5528 5529 5531 5533 5535 5537 5538 5541 5544 5546 5548 5550 5552 5554 5556 5557 5559 5561 5563
5483 5483 5484 5486 5487 5488 5490 5491 5493 5495 5497 5499 5500 5501 5505 5508 5511 5515 5514 5512 5511 5512 5513 5514 5515 5516 5517 5519 5521 5523 5525 5527 5530 5533 5535 5537 5539 5541 5543 5545 5547 5549 5551
5471 5471 5472 5473 5474 5476 5477 5478 5479 5481 5483 5485 5487 5489 5491 5492 5495 5500 5503 5502 5501 5500 5500 5501 5501 5503 5504 5506 5507 5509 5511 5513 5516 5519 5521 5524 5525 5527 5530 5533 5535 5537 5539
5459 5459 5459 5460 5461 5463 5464 5465 5466 5468 5470 5471 5473 5475 5477 5480 5483 5485 5488 5489 5489 5488 5487 5487 5487 5488 5490 5492 5493 5495 5497 5499 5501 5504 5507 5509 5511 5514 5516 5520 5522 5524 5526
5449 5448 5448 5448 5449 5450 5451 5452 5453 5455 5456 5458 5459 5461 5462 5464 5466 5468 5471 5473 5475 5475 5475 5475 5474 5474 5475 5476 5479 5480 5483 5485 5487 5489 5492 5494 5496 5499 5502 5505 5508 5510 5512
5439 5437 5436 5436 5436 5437 5438 5439 5440 5442 5443 5444 5446 5447 5449 5449 5451 5453 5455 5457 5461 5464 5464 5464 5461 5460 5460 5461 5463 5465 5468 5470 5472 5475 5477 5479 5481 5484 5487 5490 5493 5496 5499
5428 5426 5426 5425 5425 5425 5425 5426 5428 5429 5430 5431 5433 5434 5435 5435 5436 5437 5438 5439 5443 5450 5454 5452 5448 5446 5445 5446 5448 5450 5453 5455 5457 5460 5463 5465 5467 5469 5472 5475 5478 5481 5484
5417 5416 5415 5414 5413 5413 5413 5414 5415 5416 5417 5418 5418 5420 5421 5422 5423 5423 5423 5424 5425 5429 5434 5436 5433 5431 5431 5432 5434 5436 5439 5441 5443 5445 5448 5450 5452 5455 5458 5461 5464 5466 5469
5406 5405 5404 5403 5402 5402 5401 5402 5402 5403 5403 5404 5405 5406 5407 5408 5409 5410 5410 5410 5410 5412 5416 5419 5417 5416 5416 5418 5420 5422 5424 5427 5430 5431 5433 5435 5438 5441 5444 5447 5449 5452 5455
5395 5394 5393 5392 5391 5390 5390 5390 5390 5390 5391 5392 5392 5393 5394 5394 5395 5395 5396 5396 5396 5397 5399 5402 5403 5402 5402 5402 5405 5407 5410 5412 5415 5417 5419 5422 5425 5427 5430 5432 5435 5437 5439
5383 5382 5381 5380 5379 5379 5378 5378 5378 5378 5379 5379 5380 5380 5381 5381 5382 5382 5382 5383 5383 5383 5383 5386 5388 5388 5388 5388 5391 5394 5396 5398 5401 5403 5405 5408 5411 5414 5417 5418 5420 5422 5424
5371 5370 5370 5369 5368 5367 5367 5367 5367 5367 5367 5367 5367 5367 5367 5367 5368 5368 5369 5369 5369 5370 5370 5371 5373 5374 5375 5375 5377 5380 5383 5385 5387 5389 5392 5395 5397 5400 5403 5405 5407 5408 5410
5359 5359 5358 5357 5356 5356 5356 5355 5355 5355 5355 5355 5355 5355 5355 5354 5354 5354 5355 5355 5355 5356 5357 5358 5359 5361 5362 5362 5364 5365 5368 5371 5373 5375 5379 5382 5384 5388 5389 5392 5393 5395 5396
5348 5347 5347 5346 5345 5344 5344 5343 5343 5343 5343 5343 5343 5343 5343 5342 5341 5341 5341 5342 5342 5342 5343 5344 5346 5347 5348 5348 5350 5351 5353 5356 5361 5363 5365 5368 5369 5374 5376 5379 5381 5382 5383
5338 5337 5336 5335 5334 5333 5331 5331 5330 5330 5330 5330 5330 5330 5331 5331 5329 5329 5330 5329 5330 5329 5330 5330 5332 5334 5334 5335 5336 5338 5339 5340 5344 5347 5348 5355 5356 5360 5364 5366 5368 5369 5371
5327 5326 5325 5324 5323 5321 5320 5319 5318 5318 5318 5318 5317 5318 5318 5318 5318 5317 5318 5318 5319 5319 5319 5319 5320 5321 5320 5320 5321 5323 5325 5327 5331 5332 5333 5339 5344 5347 5350 5353 5356 5357 5359
5316 5315 5314 5313 5311 5310 5308 5307 5306 5306 5306 5306 5306 5306 5306 5306 5306 5306 5307 5308 5309 5309 5307 5307 5307 5307 5307 5308 5308 5309 5311 5313 5319 5322 5321 5323 5329 5332 5337 5342 5344 5346 5347
5305 5303 5302 5301 5300 5298 5296 5295 5294 5294 5295 5295 5296 5296 5295 5295 5295 5295 5295 5296 5297 5297 5297 5297 5296 5296 5296 5296 5296 5296 5297 5299 5303 5307 5309 5308 5313 5315 5323 5330 5331 5333 5335